Time,TemperatureF,DewpointF,PressureIn,WindDirection,WindDirectionDegrees,WindSpeedMPH,WindSpeedGustMPH,Humidity,HourlyPrecipIn,Conditions,Clouds,dailyrainin,SolarRadiationWatts/m^2,SoftwareType,DateUTC
2013-11-24 00:02:00,23.0,20.0,-100.00,East,93,13.0,24.0,89,0.00,,,0.00,1.000000,,2013-11-24 07:02:00,
2013-11-24 00:11:00,23.0,20.0,-100.00,East,93,13.0,24.0,89,0.00,,,0.00,1.000000,,2013-11-24 07:11:00,
2013-11-24 00:42:00,22.0,19.0,-100.00,East,92,12.0,24.0,88,0.00,,,0.00,1.000000,,2013-11-24 07:42:00,
2013-11-24 00:52:00,22.0,19.0,-100.00,East,92,12.0,24.0,88,0.00,,,0.00,1.000000,,2013-11-24 07:52:00,
2013-11-24 01:01:00,22.0,19.0,-100.00,East,92,12.0,24.0,88,0.00,,,0.00,1.000000,,2013-11-24 08:01:00,
2013-11-24 01:11:00,22.0,19.0,-100.00,East,92,12.0,24.0,88,0.00,,,0.00,1.000000,,2013-11-24 08:11:00,
2013-11-24 01:42:00,21.0,18.0,-100.00,East,101,13.0,24.0,88,0.00,,,0.00,1.000000,,2013-11-24 08:42:00,
2013-11-24 01:53:00,21.0,18.0,-100.00,East,101,13.0,24.0,88,0.00,,,0.00,1.000000,,2013-11-24 08:53:00,
2013-11-24 02:02:00,21.0,18.0,-100.00,East,101,13.0,24.0,88,0.00,,,0.00,1.000000,,2013-11-24 09:02:00,
2013-11-24 02:11:00,21.0,18.0,-100.00,East,101,13.0,24.0,88,0.00,,,0.00,1.000000,,2013-11-24 09:11:00,
2013-11-24 02:43:00,21.0,18.0,-100.00,East,91,10.0,23.0,87,0.00,,,0.00,1.000000,,2013-11-24 09:43:00,
2013-11-24 02:53:00,21.0,18.0,-100.00,East,91,10.0,23.0,87,0.00,,,0.00,1.000000,,2013-11-24 09:53:00,
2013-11-24 03:03:00,21.0,18.0,-100.00,East,91,10.0,23.0,87,0.00,,,0.00,1.000000,,2013-11-24 10:03:00,
2013-11-24 03:13:00,21.0,18.0,-100.00,East,91,10.0,23.0,87,0.00,,,0.00,1.000000,,2013-11-24 10:13:00,
2013-11-24 03:43:00,20.0,17.0,-100.00,East,90,12.0,19.0,87,0.00,,,0.00,1.000000,,2013-11-24 10:43:00,
2013-11-24 03:53:00,20.0,17.0,-100.00,East,90,12.0,19.0,87,0.00,,,0.00,1.000000,,2013-11-24 10:53:00,
2013-11-24 04:03:00,20.0,17.0,-100.00,East,90,12.0,19.0,87,0.00,,,0.00,1.000000,,2013-11-24 11:03:00,
2013-11-24 04:12:00,20.0,17.0,-100.00,East,90,12.0,19.0,87,0.00,,,0.00,1.000000,,2013-11-24 11:12:00,
2013-11-24 04:53:00,20.0,16.0,-100.00,East,90,11.0,19.0,86,0.00,,,0.00,1.000000,,2013-11-24 11:53:00,
2013-11-24 05:02:00,20.0,16.0,-100.00,East,90,11.0,19.0,86,0.00,,,0.00,1.000000,,2013-11-24 12:02:00,
2013-11-24 05:42:00,20.0,16.0,-100.00,East,90,14.0,21.0,84,0.00,,,0.00,1.000000,,2013-11-24 12:42:00,
2013-11-24 05:53:00,20.0,16.0,-100.00,East,90,14.0,21.0,84,0.00,,,0.00,1.000000,,2013-11-24 12:53:00,
2013-11-24 06:01:00,20.0,16.0,-100.00,East,90,14.0,21.0,84,0.00,,,0.00,1.000000,,2013-11-24 13:01:00,
2013-11-24 06:12:00,20.0,16.0,-100.00,East,90,14.0,21.0,84,0.00,,,0.00,1.000000,,2013-11-24 13:12:00,
2013-11-24 06:42:00,19.0,15.0,-100.00,East,86,12.0,22.0,85,0.00,,,0.00,1.000000,,2013-11-24 13:42:00,
2013-11-24 06:52:00,19.0,15.0,-100.00,East,86,12.0,22.0,85,0.00,,,0.00,1.000000,,2013-11-24 13:52:00,
2013-11-24 07:01:00,19.0,15.0,-100.00,East,86,12.0,22.0,85,0.00,,,0.00,1.000000,,2013-11-24 14:01:00,
2013-11-24 07:11:00,19.0,15.0,-100.00,East,86,12.0,22.0,85,0.00,,,0.00,1.000000,,2013-11-24 14:11:00,
2013-11-24 07:53:00,18.0,15.0,-100.00,East,97,11.0,23.0,87,0.00,,,0.00,1.000000,,2013-11-24 14:53:00,
2013-11-24 08:02:00,18.0,15.0,-100.00,East,97,11.0,23.0,87,0.00,,,0.00,1.000000,,2013-11-24 15:02:00,
2013-11-24 08:12:00,18.0,15.0,-100.00,East,97,11.0,23.0,87,0.00,,,0.00,1.000000,,2013-11-24 15:12:00,
2013-11-24 08:53:00,17.0,14.0,-100.00,ESE,107,11.0,20.0,86,0.00,,,0.00,26.000000,,2013-11-24 15:53:00,
2013-11-24 09:03:00,17.0,14.0,-100.00,ESE,107,11.0,20.0,86,0.00,,,0.00,26.000000,,2013-11-24 16:03:00,
2013-11-24 09:43:00,18.0,14.0,-100.00,ESE,107,13.0,21.0,85,0.00,,,0.00,123.000000,,2013-11-24 16:43:00,
2013-11-24 09:53:00,18.0,14.0,-100.00,ESE,107,13.0,21.0,85,0.00,,,0.00,123.000000,,2013-11-24 16:53:00,
2013-11-24 10:02:00,18.0,14.0,-100.00,ESE,107,13.0,21.0,85,0.00,,,0.00,123.000000,,2013-11-24 17:02:00,
2013-11-24 10:12:00,18.0,14.0,-100.00,ESE,107,13.0,21.0,85,0.00,,,0.00,123.000000,,2013-11-24 17:12:00,
2013-11-24 10:43:00,20.0,15.0,-100.00,East,99,11.0,18.0,82,0.00,,,0.00,258.000000,,2013-11-24 17:43:00,
2013-11-24 10:52:00,20.0,15.0,-100.00,East,99,11.0,18.0,82,0.00,,,0.00,258.000000,,2013-11-24 17:52:00,
2013-11-24 11:02:00,20.0,15.0,-100.00,East,99,11.0,18.0,82,0.00,,,0.00,258.000000,,2013-11-24 18:02:00,
2013-11-24 11:12:00,20.0,15.0,-100.00,East,99,11.0,18.0,82,0.00,,,0.00,258.000000,,2013-11-24 18:12:00,
2013-11-24 11:42:00,19.0,15.0,-100.00,East,97,9.0,19.0,83,0.00,,,0.00,192.000000,,2013-11-24 18:42:00,
2013-11-24 11:52:00,19.0,15.0,-100.00,East,97,9.0,19.0,83,0.00,,,0.00,192.000000,,2013-11-24 18:52:00,
2013-11-24 12:02:00,19.0,15.0,-100.00,East,97,9.0,19.0,83,0.00,,,0.00,192.000000,,2013-11-24 19:02:00,
2013-11-24 12:11:00,19.0,15.0,-100.00,East,97,9.0,19.0,83,0.00,,,0.00,192.000000,,2013-11-24 19:11:00,
2013-11-24 12:42:00,20.0,15.0,-100.00,ESE,103,9.0,15.0,82,0.00,,,0.00,276.000000,,2013-11-24 19:42:00,
2013-11-24 12:52:00,20.0,15.0,-100.00,ESE,103,9.0,15.0,82,0.00,,,0.00,276.000000,,2013-11-24 19:52:00,
2013-11-24 13:02:00,20.0,15.0,-100.00,ESE,103,9.0,15.0,82,0.00,,,0.00,276.000000,,2013-11-24 20:02:00,
2013-11-24 13:11:00,20.0,15.0,-100.00,ESE,103,9.0,15.0,82,0.00,,,0.00,276.000000,,2013-11-24 20:11:00,
2013-11-24 13:42:00,21.0,16.0,-100.00,ESE,106,8.0,15.0,81,0.00,,,0.00,316.000000,,2013-11-24 20:42:00,
2013-11-24 13:52:00,21.0,16.0,-100.00,ESE,106,8.0,15.0,81,0.00,,,0.00,316.000000,,2013-11-24 20:52:00,
2013-11-24 14:02:00,21.0,16.0,-100.00,ESE,106,8.0,15.0,81,0.00,,,0.00,316.000000,,2013-11-24 21:02:00,
2013-11-24 14:11:00,21.0,16.0,-100.00,ESE,106,8.0,15.0,81,0.00,,,0.00,316.000000,,2013-11-24 21:11:00,
2013-11-24 14:43:00,21.0,17.0,-100.00,ESE,114,6.0,12.0,83,0.00,,,0.00,228.000000,,2013-11-24 21:43:00,
2013-11-24 14:54:00,21.0,17.0,-100.00,ESE,114,6.0,12.0,83,0.00,,,0.00,228.000000,,2013-11-24 21:54:00,
2013-11-24 15:03:00,21.0,17.0,-100.00,ESE,114,6.0,12.0,83,0.00,,,0.00,228.000000,,2013-11-24 22:03:00,
2013-11-24 15:12:00,21.0,17.0,-100.00,ESE,114,6.0,12.0,83,0.00,,,0.00,228.000000,,2013-11-24 22:12:00,
2013-11-24 15:43:00,21.0,17.0,-100.00,SE,125,6.0,11.0,84,0.00,,,0.00,149.000000,,2013-11-24 22:43:00,
2013-11-24 15:53:00,21.0,17.0,-100.00,SE,125,6.0,11.0,84,0.00,,,0.00,149.000000,,2013-11-24 22:53:00,
2013-11-24 16:02:00,21.0,17.0,-100.00,SE,125,6.0,11.0,84,0.00,,,0.00,149.000000,,2013-11-24 23:02:00,
2013-11-24 16:12:00,21.0,17.0,-100.00,SE,125,6.0,11.0,84,0.00,,,0.00,149.000000,,2013-11-24 23:12:00,
2013-11-24 16:42:00,21.0,17.0,-100.00,SSE,160,4.0,9.0,85,0.00,,,-99.99,78.000000,,2013-11-24 23:42:00,
2013-11-24 16:52:00,21.0,17.0,-100.00,SSE,160,4.0,9.0,85,0.00,,,-99.99,78.000000,,2013-11-24 23:52:00,
2013-11-24 17:02:00,21.0,17.0,-100.00,SSE,160,4.0,9.0,85,0.00,,,-99.99,78.000000,,2013-11-25 00:02:00,
2013-11-24 17:12:00,21.0,17.0,-100.00,SSE,160,4.0,9.0,85,0.00,,,-99.99,78.000000,,2013-11-25 00:12:00,
2013-11-24 17:42:00,19.0,16.0,-100.00,South,178,5.0,8.0,87,0.00,,,0.00,19.000000,,2013-11-25 00:42:00,
2013-11-24 17:52:00,19.0,16.0,-100.00,South,178,5.0,8.0,87,0.00,,,0.00,19.000000,,2013-11-25 00:52:00,
2013-11-24 18:02:00,19.0,16.0,-100.00,South,178,5.0,8.0,87,0.00,,,0.00,19.000000,,2013-11-25 01:02:00,
2013-11-24 18:11:00,19.0,16.0,-100.00,South,178,5.0,8.0,87,0.00,,,0.00,19.000000,,2013-11-25 01:11:00,
2013-11-24 18:42:00,19.0,16.0,-100.00,South,189,0.0,6.0,87,0.00,,,0.00,1.000000,,2013-11-25 01:42:00,
2013-11-24 18:52:00,19.0,16.0,-100.00,South,189,0.0,6.0,87,0.00,,,0.00,1.000000,,2013-11-25 01:52:00,
2013-11-24 19:01:00,19.0,16.0,-100.00,South,189,0.0,6.0,87,0.00,,,0.00,1.000000,,2013-11-25 02:01:00,
2013-11-24 19:11:00,19.0,16.0,-100.00,South,189,0.0,6.0,87,0.00,,,0.00,1.000000,,2013-11-25 02:11:00,
2013-11-24 19:43:00,19.0,16.0,-100.00,South,178,4.0,7.0,88,0.00,,,0.00,1.000000,,2013-11-25 02:43:00,
2013-11-24 19:52:00,19.0,16.0,-100.00,South,178,4.0,7.0,88,0.00,,,0.00,1.000000,,2013-11-25 02:52:00,
2013-11-24 20:02:00,19.0,16.0,-100.00,South,178,4.0,7.0,88,0.00,,,0.00,1.000000,,2013-11-25 03:02:00,
2013-11-24 20:11:00,19.0,16.0,-100.00,South,178,4.0,7.0,88,0.00,,,0.00,1.000000,,2013-11-25 03:11:00,
2013-11-24 20:43:00,18.0,15.0,-100.00,South,186,3.0,6.0,88,0.00,,,0.00,1.000000,,2013-11-25 03:43:00,
2013-11-24 20:53:00,18.0,15.0,-100.00,South,186,3.0,6.0,88,0.00,,,0.00,1.000000,,2013-11-25 03:53:00,
2013-11-24 21:03:00,18.0,15.0,-100.00,South,186,3.0,6.0,88,0.00,,,0.00,1.000000,,2013-11-25 04:03:00,
2013-11-24 21:13:00,18.0,15.0,-100.00,South,186,3.0,6.0,88,0.00,,,0.00,1.000000,,2013-11-25 04:13:00,
2013-11-24 21:43:00,19.0,16.0,-100.00,SSW,195,4.0,7.0,88,0.00,,,0.00,1.000000,,2013-11-25 04:43:00,
2013-11-24 21:53:00,19.0,16.0,-100.00,SSW,195,4.0,7.0,88,0.00,,,0.00,1.000000,,2013-11-25 04:53:00,
2013-11-24 22:02:00,19.0,16.0,-100.00,SSW,195,4.0,7.0,88,0.00,,,0.00,1.000000,,2013-11-25 05:02:00,
2013-11-24 22:12:00,19.0,16.0,-100.00,SSW,195,4.0,7.0,88,0.00,,,0.00,1.000000,,2013-11-25 05:12:00,
2013-11-24 22:43:00,19.0,16.0,-100.00,SSW,201,2.0,7.0,88,0.00,,,0.00,1.000000,,2013-11-25 05:43:00,
2013-11-24 22:53:00,19.0,16.0,-100.00,SSW,201,2.0,7.0,88,0.00,,,0.00,1.000000,,2013-11-25 05:53:00,
2013-11-24 23:02:00,19.0,16.0,-100.00,SSW,201,2.0,7.0,88,0.00,,,0.00,1.000000,,2013-11-25 06:02:00,
2013-11-24 23:12:00,19.0,16.0,-100.00,SSW,201,2.0,7.0,88,0.00,,,0.00,1.000000,,2013-11-25 06:12:00,
2013-11-24 23:42:00,19.0,16.0,-100.00,WSW,238,3.0,7.0,88,0.00,,,0.00,1.000000,,2013-11-25 06:42:00,
2013-11-24 23:52:00,19.0,16.0,-100.00,WSW,238,3.0,7.0,88,0.00,,,0.00,1.000000,,2013-11-25 06:52:00,